Time,TemperatureF,DewpointF,PressureIn,WindDirection,WindDirectionDegrees,WindSpeedMPH,WindSpeedGustMPH,Humidity,HourlyPrecipIn,Conditions,Clouds,dailyrainin,SoftwareType,DateUTC
2013-07-20 00:10:00,80.4,68.0,29.79,SSW,211,0.0,1.0,66,0.00,,---,0.00,VWS V14.01,2013-07-20 05:10:00,
2013-07-20 00:25:00,79.7,68.2,29.80,SW,223,2.0,11.0,68,0.00,,---,0.00,VWS V14.01,2013-07-20 05:25:00,
2013-07-20 00:41:00,79.7,68.2,29.81,West,262,0.0,5.0,68,0.00,,---,0.00,VWS V14.01,2013-07-20 05:41:00,
2013-07-20 00:56:00,79.3,68.3,29.80,WSW,250,1.0,4.0,69,0.00,,---,0.00,VWS V14.01,2013-07-20 05:56:00,
2013-07-20 01:11:00,78.7,67.7,29.80,WSW,254,0.0,4.0,69,0.00,,---,0.00,VWS V14.01,2013-07-20 06:11:00,
2013-07-20 01:25:00,78.3,67.3,29.79,West,270,0.0,5.0,69,0.00,,---,0.00,VWS V14.01,2013-07-20 06:25:00,
2013-07-20 01:40:00,77.8,67.2,29.79,West,270,0.0,2.0,70,0.00,,---,0.00,VWS V14.01,2013-07-20 06:40:00,
2013-07-20 01:56:00,77.2,67.1,29.79,West,270,0.0,0.0,71,0.00,,---,0.00,VWS V14.01,2013-07-20 06:56:00,
2013-07-20 02:10:00,76.6,66.9,29.80,West,270,0.0,2.0,72,0.00,,---,0.00,VWS V14.01,2013-07-20 07:10:00,
2013-07-20 02:25:00,76.0,67.1,29.80,West,270,0.0,0.0,74,0.00,,---,0.00,VWS V14.01,2013-07-20 07:25:00,
2013-07-20 02:41:00,75.3,66.8,29.80,West,270,0.0,0.0,75,0.00,,---,0.00,VWS V14.01,2013-07-20 07:41:00,
2013-07-20 02:56:00,75.2,66.7,29.79,West,270,0.0,1.0,75,0.00,,---,0.00,VWS V14.01,2013-07-20 07:56:00,
2013-07-20 03:10:00,75.4,67.3,29.79,West,270,1.0,2.0,76,0.00,,---,0.00,VWS V14.01,2013-07-20 08:10:00,
2013-07-20 03:26:00,74.6,66.9,29.79,SSW,200,0.0,5.0,77,0.00,,---,0.00,VWS V14.01,2013-07-20 08:26:00,
2013-07-20 03:41:00,74.4,66.7,29.79,SSW,200,0.0,0.0,77,0.00,,---,0.00,VWS V14.01,2013-07-20 08:41:00,
2013-07-20 03:55:00,74.3,67.0,29.78,SSW,200,0.0,0.0,78,0.00,,---,0.00,VWS V14.01,2013-07-20 08:55:00,
2013-07-20 04:10:00,74.2,66.9,29.78,SSW,200,0.0,0.0,78,0.00,,---,0.00,VWS V14.01,2013-07-20 09:10:00,
2013-07-20 04:25:00,74.1,67.2,29.78,SW,236,2.0,5.0,79,0.00,,---,0.00,VWS V14.01,2013-07-20 09:25:00,
2013-07-20 04:40:00,74.9,67.6,29.79,NNW,329,1.0,5.0,78,0.00,,---,0.00,VWS V14.01,2013-07-20 09:40:00,
2013-07-20 04:55:00,74.3,67.7,29.79,NNW,331,0.0,4.0,80,0.00,,---,0.00,VWS V14.01,2013-07-20 09:55:00,
2013-07-20 05:11:00,74.1,67.9,29.79,NNW,331,1.0,2.0,81,0.00,,---,0.00,VWS V14.01,2013-07-20 10:11:00,
2013-07-20 05:25:00,74.0,67.8,29.80,NNW,331,0.0,2.0,81,0.00,,---,0.00,VWS V14.01,2013-07-20 10:25:00,
2013-07-20 05:41:00,73.1,67.6,29.80,NNW,331,0.0,0.0,83,0.00,,---,0.00,VWS V14.01,2013-07-20 10:41:00,
2013-07-20 05:55:00,72.5,68.1,29.80,NNW,331,0.0,0.0,86,0.00,,---,0.00,VWS V14.01,2013-07-20 10:55:00,
2013-07-20 06:11:00,73.0,68.2,29.80,NNW,331,0.0,0.0,85,0.00,,---,0.00,VWS V14.01,2013-07-20 11:11:00,
2013-07-20 06:26:00,73.4,68.6,29.80,NNW,331,0.0,0.0,85,0.00,,---,0.00,VWS V14.01,2013-07-20 11:26:00,
2013-07-20 06:41:00,73.5,68.4,29.81,NNW,331,0.0,0.0,84,0.00,,---,0.00,VWS V14.01,2013-07-20 11:41:00,
2013-07-20 06:55:00,74.0,69.2,29.81,NNW,331,2.0,4.0,85,0.00,,---,0.00,VWS V14.01,2013-07-20 11:55:00,
2013-07-20 07:11:00,75.2,69.3,29.81,North,5,0.0,5.0,82,0.00,,---,0.00,VWS V14.01,2013-07-20 12:11:00,
2013-07-20 07:25:00,75.9,69.7,29.82,North,5,1.0,4.0,81,0.00,,---,0.00,VWS V14.01,2013-07-20 12:25:00,
2013-07-20 07:41:00,72.7,67.9,29.83,ENE,76,0.0,18.0,85,0.60,,---,0.60,VWS V14.01,2013-07-20 12:41:00,
2013-07-20 07:56:00,71.1,68.0,29.85,South,179,1.0,6.0,90,0.92,,---,0.92,VWS V14.01,2013-07-20 12:56:00,
2013-07-20 08:11:00,70.8,68.7,29.85,SE,129,2.0,6.0,93,1.31,,---,1.31,VWS V14.01,2013-07-20 13:11:00,
2013-07-20 08:26:00,70.6,68.5,29.84,SSW,194,0.0,8.0,93,1.51,,---,1.51,VWS V14.01,2013-07-20 13:26:00,
2013-07-20 08:41:00,70.4,68.3,29.85,SSW,194,0.0,4.0,93,1.58,,---,1.58,VWS V14.01,2013-07-20 13:41:00,
2013-07-20 08:56:00,70.2,68.4,29.85,WSW,239,0.0,5.0,94,1.00,,---,1.60,VWS V14.01,2013-07-20 13:56:00,
2013-07-20 09:11:00,70.3,68.8,29.84,WSW,246,3.0,5.0,95,0.69,,---,1.61,VWS V14.01,2013-07-20 14:11:00,
2013-07-20 09:25:00,70.6,69.1,29.84,WSW,250,0.0,5.0,95,0.31,,---,1.62,VWS V14.01,2013-07-20 14:25:00,
2013-07-20 09:41:00,70.8,69.3,29.83,WSW,250,3.0,5.0,95,0.11,,---,1.62,VWS V14.01,2013-07-20 14:41:00,
2013-07-20 09:56:00,70.9,69.4,29.83,SSW,208,0.0,7.0,95,0.04,,---,1.62,VWS V14.01,2013-07-20 14:56:00,
2013-07-20 10:11:00,71.1,69.6,29.83,SSW,208,0.0,3.0,95,0.02,,---,1.62,VWS V14.01,2013-07-20 15:11:00,
2013-07-20 10:26:00,71.3,69.8,29.84,SSW,208,0.0,3.0,95,0.01,,---,1.62,VWS V14.01,2013-07-20 15:26:00,
2013-07-20 10:41:00,71.1,69.3,29.84,SSW,208,0.0,1.0,94,0.00,,---,1.62,VWS V14.01,2013-07-20 15:41:00,
2013-07-20 10:56:00,71.6,70.1,29.84,SSW,208,1.0,3.0,95,0.01,,---,1.63,VWS V14.01,2013-07-20 15:56:00,
2013-07-20 11:11:00,71.7,70.2,29.84,SSW,205,0.0,3.0,95,0.04,,---,1.66,VWS V14.01,2013-07-20 16:11:00,
2013-07-20 11:26:00,71.7,70.2,29.84,SSW,205,3.0,5.0,95,0.05,,---,1.67,VWS V14.01,2013-07-20 16:26:00,
2013-07-20 11:40:00,72.4,71.2,29.83,SSW,195,0.0,4.0,96,0.08,,---,1.70,VWS V14.01,2013-07-20 16:40:00,
2013-07-20 11:56:00,73.0,71.8,29.82,South,184,0.0,3.0,96,0.10,,---,1.72,VWS V14.01,2013-07-20 16:56:00,
2013-07-20 12:11:00,73.7,72.5,29.81,SE,132,4.0,6.0,96,0.09,,---,1.72,VWS V14.01,2013-07-20 17:11:00,
2013-07-20 12:26:00,74.6,73.1,29.83,NE,48,3.0,7.0,95,0.06,,---,1.72,VWS V14.01,2013-07-20 17:26:00,
2013-07-20 12:41:00,74.5,72.3,29.83,ENE,59,4.0,6.0,93,0.05,,---,1.72,VWS V14.01,2013-07-20 17:41:00,
2013-07-20 12:56:00,74.9,72.7,29.84,ENE,68,4.0,7.0,93,0.02,,---,1.72,VWS V14.01,2013-07-20 17:56:00,
2013-07-20 13:11:00,75.5,73.0,29.84,ESE,111,0.0,5.0,92,0.00,,---,1.72,VWS V14.01,2013-07-20 18:11:00,
2013-07-20 13:26:00,76.3,73.2,29.84,ENE,69,0.0,4.0,90,0.00,,---,1.72,VWS V14.01,2013-07-20 18:26:00,
2013-07-20 13:41:00,77.3,73.1,29.84,ENE,69,0.0,4.0,87,0.00,,---,1.72,VWS V14.01,2013-07-20 18:41:00,
2013-07-20 13:56:00,78.8,74.6,29.83,ENE,69,1.0,4.0,87,0.00,,---,1.72,VWS V14.01,2013-07-20 18:56:00,
2013-07-20 14:11:00,80.8,74.8,29.83,ESE,105,0.0,7.0,82,0.00,,---,1.72,VWS V14.01,2013-07-20 19:11:00,
2013-07-20 14:26:00,81.2,74.4,29.83,ESE,112,2.0,7.0,80,0.00,,---,1.72,VWS V14.01,2013-07-20 19:26:00,
2013-07-20 14:56:00,80.9,74.9,29.82,SE,138,1.0,7.0,82,0.00,,---,1.72,VWS V14.01,2013-07-20 19:56:00,
2013-07-20 15:26:00,80.0,74.4,29.82,SE,136,1.0,4.0,83,0.00,,---,1.72,VWS V14.01,2013-07-20 20:26:00,
2013-07-20 15:41:00,79.6,74.3,29.83,SE,136,0.0,2.0,84,0.01,,---,1.73,VWS V14.01,2013-07-20 20:41:00,
2013-07-20 15:56:00,79.2,74.3,29.82,SE,136,0.0,0.0,85,0.01,,---,1.73,VWS V14.01,2013-07-20 20:56:00,
2013-07-20 16:26:00,78.9,75.4,29.82,West,260,0.0,4.0,89,0.01,,---,1.73,VWS V14.01,2013-07-20 21:26:00,
2013-07-20 16:41:00,78.8,75.3,29.81,West,260,0.0,0.0,89,0.01,,---,1.73,VWS V14.01,2013-07-20 21:41:00,
2013-07-20 16:56:00,78.8,75.3,29.81,West,260,0.0,0.0,89,0.00,,---,1.73,VWS V14.01,2013-07-20 21:56:00,
2013-07-20 17:11:00,78.7,75.5,29.80,West,260,0.0,3.0,90,0.00,,---,1.73,VWS V14.01,2013-07-20 22:11:00,
2013-07-20 17:26:00,78.7,75.2,29.79,West,260,0.0,0.0,89,0.00,,---,1.73,VWS V14.01,2013-07-20 22:26:00,
2013-07-20 17:41:00,78.7,75.2,29.77,NNE,21,0.0,1.0,89,0.00,,---,1.73,VWS V14.01,2013-07-20 22:41:00,
2013-07-20 17:56:00,78.4,74.6,29.78,NNE,21,0.0,0.0,88,0.00,,---,1.73,VWS V14.01,2013-07-20 22:56:00,
2013-07-20 18:11:00,78.5,75.7,29.77,SE,143,4.0,4.0,91,0.00,,---,1.73,VWS V14.01,2013-07-20 23:11:00,
2013-07-20 18:26:00,78.1,75.6,29.76,SE,145,0.0,5.0,92,0.00,,---,1.73,VWS V14.01,2013-07-20 23:26:00,
2013-07-20 18:56:00,77.8,75.3,29.78,SSE,156,0.0,4.0,92,0.00,,---,1.73,VWS V14.01,2013-07-20 23:56:00,
2013-07-20 19:26:00,77.6,75.4,29.78,SSE,155,0.0,0.0,93,0.01,,---,1.74,VWS V14.01,2013-07-21 00:26:00,
2013-07-20 19:41:00,77.5,75.6,29.79,SSE,155,0.0,0.0,94,0.01,,---,1.74,VWS V14.01,2013-07-21 00:41:00,
2013-07-20 19:56:00,77.2,75.3,29.78,SSE,155,0.0,0.0,94,0.01,,---,1.74,VWS V14.01,2013-07-21 00:56:00,
2013-07-20 20:26:00,76.5,75.0,29.78,SSE,155,0.0,0.0,95,0.01,,---,1.74,VWS V14.01,2013-07-21 01:26:00,
2013-07-20 20:41:00,76.4,74.9,29.78,SSE,156,0.0,0.0,95,0.00,,---,1.74,VWS V14.01,2013-07-21 01:41:00,
2013-07-20 20:56:00,76.1,74.6,29.79,SSE,155,0.0,0.0,95,0.00,,---,1.74,VWS V14.01,2013-07-21 01:56:00,
2013-07-20 21:26:00,75.3,73.8,29.81,SSE,155,0.0,0.0,95,0.00,,---,1.74,VWS V14.01,2013-07-21 02:26:00,
2013-07-20 21:41:00,75.1,73.9,29.81,SSE,155,0.0,0.0,96,0.00,,---,1.74,VWS V14.01,2013-07-21 02:41:00,
2013-07-20 21:56:00,74.8,73.6,29.81,SSE,155,0.0,0.0,96,0.00,,---,1.74,VWS V14.01,2013-07-21 02:56:00,
2013-07-20 22:26:00,74.9,73.7,29.83,SSE,156,0.0,0.0,96,0.00,,---,1.74,VWS V14.01,2013-07-21 03:26:00,
2013-07-20 22:56:00,74.8,73.6,29.83,SSE,150,0.0,0.0,96,0.00,,---,1.74,VWS V14.01,2013-07-21 03:56:00,
2013-07-20 23:11:00,74.9,74.0,29.83,SSE,150,0.0,0.0,97,0.00,,---,1.74,VWS V14.01,2013-07-21 04:11:00,
2013-07-20 23:26:00,75.0,74.1,29.83,SSE,150,0.0,0.0,97,0.00,,---,1.74,VWS V14.01,2013-07-21 04:26:00,
2013-07-20 23:41:00,74.9,74.0,29.84,SSE,150,0.0,0.0,97,0.00,,---,1.74,VWS V14.01,2013-07-21 04:41:00,
2013-07-20 23:56:00,74.8,73.9,29.84,SSE,150,0.0,1.0,97,0.00,,---,1.74,VWS V14.01,2013-07-21 04:56:00,